Time,TemperatureF,DewpointF,PressureIn,WindDirection,WindDirectionDegrees,WindSpeedMPH,WindSpeedGustMPH,Humidity,HourlyPrecipIn,Conditions,Clouds,dailyrainin,SoftwareType,DateUTC
2013-02-22 00:04:00,21.2,13.9,30.25,NW,307,0.0,5.0,73,0.00,CLR,,0.00,WeatherDisplay:10.37,2013-02-22 05:04:00,
2013-02-22 00:09:00,22.1,14.8,30.26,NW,313,0.0,9.0,73,0.00,CLR,,0.00,WeatherDisplay:10.37,2013-02-22 05:09:00,
2013-02-22 00:14:00,21.0,13.7,30.27,NW,315,0.0,0.0,73,0.00,CLR,,0.00,WeatherDisplay:10.37,2013-02-22 05:14:00,
2013-02-22 00:19:00,20.8,13.5,30.26,NW,317,1.0,6.0,73,0.00,CLR,,0.00,WeatherDisplay:10.37,2013-02-22 05:19:00,
2013-02-22 00:24:00,21.2,13.9,30.26,NW,315,0.0,8.0,73,0.00,CLR,,0.00,WeatherDisplay:10.37,2013-02-22 05:24:00,
2013-02-22 00:29:00,21.2,13.9,30.26,NW,315,1.0,7.0,73,0.00,CLR,,0.00,WeatherDisplay:10.37,2013-02-22 05:29:00,
2013-02-22 00:34:00,21.6,14.3,30.27,WNW,302,2.0,7.0,73,0.00,CLR,,0.00,WeatherDisplay:10.37,2013-02-22 05:34:00,
2013-02-22 00:39:00,21.6,14.3,30.27,West,279,1.0,13.0,73,0.00,CLR,,0.00,WeatherDisplay:10.37,2013-02-22 05:39:00,
2013-02-22 00:44:00,22.5,15.2,30.28,WNW,293,1.0,10.0,73,0.00,CLR,,0.00,WeatherDisplay:10.37,2013-02-22 05:44:00,
2013-02-22 00:50:00,22.0,14.7,30.28,North,4,0.0,8.0,73,0.00,CLR,,0.00,WeatherDisplay:10.37,2013-02-22 05:50:00,
2013-02-22 00:54:00,22.2,14.9,30.28,NNE,14,5.0,11.0,73,0.00,CLR,,0.00,WeatherDisplay:10.37,2013-02-22 05:54:00,
2013-02-22 00:59:00,22.0,14.6,30.28,North,9,2.0,10.0,73,0.00,CLR,,0.00,WeatherDisplay:10.37,2013-02-22 05:59:00,
2013-02-22 01:04:00,21.8,17.4,30.29,North,354,0.0,0.0,83,0.00,CLR,,0.00,WeatherDisplay:10.37,2013-02-22 06:04:00,
2013-02-22 01:10:00,21.6,17.3,30.28,NNW,347,0.0,0.0,83,0.00,CLR,,0.00,WeatherDisplay:10.37,2013-02-22 06:10:00,
2013-02-22 01:14:00,22.1,17.7,30.28,North,1,2.0,8.0,83,0.00,CLR,,0.00,WeatherDisplay:10.37,2013-02-22 06:14:00,
2013-02-22 01:20:00,21.9,17.5,30.27,NNE,12,2.0,8.0,83,0.00,CLR,,0.00,WeatherDisplay:10.37,2013-02-22 06:20:00,
2013-02-22 01:24:00,22.0,17.7,30.27,NNE,15,1.0,9.0,83,0.00,CLR,,0.00,WeatherDisplay:10.37,2013-02-22 06:24:00,
2013-02-22 01:29:00,22.6,18.2,30.27,NE,34,2.0,9.0,83,0.00,CLR,,0.00,WeatherDisplay:10.37,2013-02-22 06:29:00,
2013-02-22 01:34:00,22.7,18.3,30.27,NE,38,1.0,9.0,83,0.00,CLR,,0.00,WeatherDisplay:10.37,2013-02-22 06:34:00,
2013-02-22 01:39:00,22.7,18.3,30.27,NE,38,0.0,7.0,83,0.00,CLR,,0.00,WeatherDisplay:10.37,2013-02-22 06:39:00,
2013-02-22 01:44:00,22.8,18.4,30.27,NE,35,2.0,12.0,83,0.00,CLR,,0.00,WeatherDisplay:10.37,2013-02-22 06:44:00,
2013-02-22 01:49:00,22.7,18.3,30.27,NNE,28,1.0,12.0,83,0.00,CLR,,0.00,WeatherDisplay:10.37,2013-02-22 06:49:00,
2013-02-22 01:54:00,23.0,18.6,30.27,NNE,27,0.0,7.0,83,0.00,CLR,,0.00,WeatherDisplay:10.37,2013-02-22 06:54:00,
2013-02-22 01:59:00,23.0,18.6,30.28,NNE,26,1.0,7.0,83,0.00,CLR,,0.00,WeatherDisplay:10.37,2013-02-22 06:59:00,
2013-02-22 02:04:00,22.8,18.7,30.27,NNE,15,0.0,9.0,84,0.00,CLR,,0.00,WeatherDisplay:10.37,2013-02-22 07:04:00,
2013-02-22 02:09:00,22.9,18.8,30.27,NNE,19,0.0,7.0,84,0.00,CLR,,0.00,WeatherDisplay:10.37,2013-02-22 07:09:00,
2013-02-22 02:14:00,23.0,18.9,30.28,NNE,30,3.0,10.0,84,0.00,CLR,,0.00,WeatherDisplay:10.37,2013-02-22 07:14:00,
2013-02-22 02:19:00,23.0,18.9,30.28,North,9,0.0,12.0,84,0.00,CLR,,0.00,WeatherDisplay:10.37,2013-02-22 07:19:00,
2013-02-22 02:24:00,22.6,18.5,30.28,North,356,1.0,7.0,84,0.00,CLR,,0.00,WeatherDisplay:10.37,2013-02-22 07:24:00,
2013-02-22 02:29:00,22.5,18.4,30.29,NNW,336,2.0,5.0,84,0.00,CLR,,0.00,WeatherDisplay:10.37,2013-02-22 07:29:00,
2013-02-22 02:34:00,22.9,18.8,30.28,NW,312,0.0,0.0,84,0.00,CLR,,0.00,WeatherDisplay:10.37,2013-02-22 07:34:00,
2013-02-22 02:39:00,22.6,18.5,30.29,NW,309,0.0,3.0,84,0.00,CLR,,0.00,WeatherDisplay:10.37,2013-02-22 07:39:00,
2013-02-22 02:44:00,22.5,18.4,30.29,NNW,339,0.0,7.0,84,0.00,CLR,,0.00,WeatherDisplay:10.37,2013-02-22 07:44:00,
2013-02-22 02:49:00,22.1,18.0,30.28,NNE,26,0.0,8.0,84,0.00,CLR,,0.00,WeatherDisplay:10.37,2013-02-22 07:49:00,
2013-02-22 02:54:00,22.8,18.7,30.28,NE,41,3.0,9.0,84,0.00,CLR,,0.00,WeatherDisplay:10.37,2013-02-22 07:54:00,
2013-02-22 02:59:00,22.7,18.5,30.29,NE,44,2.0,9.0,84,0.00,CLR,,0.00,WeatherDisplay:10.37,2013-02-22 07:59:00,
2013-02-22 03:04:00,22.5,18.1,30.29,NE,38,0.0,7.0,83,0.00,CLR,,0.00,WeatherDisplay:10.37,2013-02-22 08:04:00,
2013-02-22 03:09:00,22.7,18.3,30.28,NE,36,0.0,7.0,83,0.00,CLR,,0.00,WeatherDisplay:10.37,2013-02-22 08:09:00,
2013-02-22 03:14:00,22.3,17.9,30.29,NE,34,0.0,3.0,83,0.00,CLR,,0.00,WeatherDisplay:10.37,2013-02-22 08:14:00,
2013-02-22 03:20:00,22.7,18.3,30.29,NNE,32,0.0,6.0,83,0.00,CLR,,0.00,WeatherDisplay:10.37,2013-02-22 08:20:00,
2013-02-22 03:25:00,22.4,18.0,30.29,NE,37,0.0,10.0,83,0.00,CLR,,0.00,WeatherDisplay:10.37,2013-02-22 08:25:00,
2013-02-22 03:30:00,22.9,18.5,30.29,NE,37,0.0,3.0,83,0.00,CLR,,0.00,WeatherDisplay:10.37,2013-02-22 08:30:00,
2013-02-22 03:35:00,22.6,18.2,30.30,NW,323,2.0,9.0,83,0.00,CLR,,0.00,WeatherDisplay:10.37,2013-02-22 08:35:00,
2013-02-22 03:40:00,22.6,18.2,30.30,West,271,2.0,10.0,83,0.00,CLR,,0.00,WeatherDisplay:10.37,2013-02-22 08:40:00,
2013-02-22 03:45:00,22.6,18.2,30.30,WSW,251,1.0,6.0,83,0.00,CLR,,0.00,WeatherDisplay:10.37,2013-02-22 08:45:00,
2013-02-22 03:50:00,22.6,18.2,30.30,West,270,0.0,9.0,83,0.00,CLR,,0.00,WeatherDisplay:10.37,2013-02-22 08:50:00,
2013-02-22 03:55:00,22.1,17.7,30.30,NW,312,0.0,3.0,83,0.00,CLR,,0.00,WeatherDisplay:10.37,2013-02-22 08:55:00,
2013-02-22 04:00:00,22.0,17.6,30.30,NW,320,0.0,9.0,83,0.00,CLR,,0.00,WeatherDisplay:10.37,2013-02-22 09:00:00,
2013-02-22 04:05:00,22.5,19.3,30.30,NW,314,0.0,6.0,87,0.00,CLR,,0.00,WeatherDisplay:10.37,2013-02-22 09:05:00,
2013-02-22 04:10:00,22.8,19.5,30.30,NW,315,0.0,0.0,87,0.00,CLR,,0.00,WeatherDisplay:10.37,2013-02-22 09:10:00,
2013-02-22 04:15:00,22.8,19.5,30.30,NW,316,0.0,0.0,87,0.00,CLR,,0.00,WeatherDisplay:10.37,2013-02-22 09:15:00,
2013-02-22 04:20:00,22.6,19.3,30.30,NW,315,2.0,7.0,87,0.00,CLR,,0.00,WeatherDisplay:10.37,2013-02-22 09:20:00,
2013-02-22 04:25:00,22.8,19.5,30.30,NW,310,0.0,5.0,87,0.00,CLR,,0.00,WeatherDisplay:10.37,2013-02-22 09:25:00,
2013-02-22 04:30:00,23.3,20.0,30.31,NW,305,0.0,0.0,87,0.00,CLR,,0.00,WeatherDisplay:10.37,2013-02-22 09:30:00,
2013-02-22 04:40:00,21.6,18.3,30.31,NW,305,0.0,0.0,87,0.00,CLR,,0.00,WeatherDisplay:10.37,2013-02-22 09:40:00,
2013-02-22 04:45:00,21.3,18.0,30.31,NW,305,0.0,0.0,87,0.00,CLR,,0.00,WeatherDisplay:10.37,2013-02-22 09:45:00,
2013-02-22 04:50:00,21.0,17.8,30.31,NW,305,0.0,0.0,87,0.00,CLR,,0.00,WeatherDisplay:10.37,2013-02-22 09:50:00,
2013-02-22 05:00:00,20.7,17.4,30.31,NW,313,0.0,0.0,87,0.00,CLR,,0.00,WeatherDisplay:10.37,2013-02-22 10:00:00,
2013-02-22 05:05:00,21.0,18.8,30.31,NW,313,0.0,0.0,91,0.00,CLR,,0.00,WeatherDisplay:10.37,2013-02-22 10:05:00,
2013-02-22 05:15:00,21.1,18.8,30.32,NW,313,0.0,0.0,91,0.00,CLR,,0.00,WeatherDisplay:10.37,2013-02-22 10:15:00,
2013-02-22 05:20:00,21.0,18.8,30.32,NW,313,0.0,0.0,91,0.00,CLR,,0.00,WeatherDisplay:10.37,2013-02-22 10:20:00,
2013-02-22 05:25:00,20.2,17.9,30.32,NW,313,0.0,0.0,91,0.00,CLR,,0.00,WeatherDisplay:10.37,2013-02-22 10:25:00,
2013-02-22 05:30:00,20.6,18.4,30.33,NW,313,0.0,0.0,91,0.00,CLR,,0.00,WeatherDisplay:10.37,2013-02-22 10:30:00,
2013-02-22 05:35:00,19.7,17.5,30.33,NW,313,0.0,0.0,91,0.00,CLR,,0.00,WeatherDisplay:10.37,2013-02-22 10:35:00,
2013-02-22 05:45:00,20.0,17.8,30.34,NW,313,0.0,0.0,91,0.00,CLR,,0.00,WeatherDisplay:10.37,2013-02-22 10:45:00,
2013-02-22 05:50:00,20.6,18.4,30.35,NW,313,0.0,0.0,91,0.00,CLR,,0.00,WeatherDisplay:10.37,2013-02-22 10:50:00,
2013-02-22 05:55:00,20.2,18.0,30.35,NW,313,0.0,0.0,91,0.00,CLR,,0.00,WeatherDisplay:10.37,2013-02-22 10:55:00,
2013-02-22 06:00:00,20.0,17.8,30.36,NW,313,0.0,0.0,91,0.00,CLR,,0.00,WeatherDisplay:10.37,2013-02-22 11:00:00,
2013-02-22 06:10:00,19.1,15.8,30.36,NW,313,0.0,0.0,87,0.00,CLR,,0.00,WeatherDisplay:10.37,2013-02-22 11:10:00,
2013-02-22 06:15:00,20.1,16.8,30.37,NW,313,0.0,0.0,87,0.00,CLR,,0.00,WeatherDisplay:10.37,2013-02-22 11:15:00,
2013-02-22 06:20:00,19.6,16.3,30.38,NW,313,0.0,0.0,87,0.00,CLR,,0.00,WeatherDisplay:10.37,2013-02-22 11:20:00,
2013-02-22 06:25:00,20.1,16.8,30.38,NW,313,0.0,0.0,87,0.00,CLR,,0.00,WeatherDisplay:10.37,2013-02-22 11:25:00,
2013-02-22 06:30:00,20.5,17.3,30.38,NW,313,0.0,0.0,87,0.00,CLR,,0.00,WeatherDisplay:10.37,2013-02-22 11:30:00,
2013-02-22 06:40:00,18.3,15.1,30.38,NW,313,0.0,0.0,87,0.00,CLR,,0.00,WeatherDisplay:10.37,2013-02-22 11:40:00,
2013-02-22 06:45:00,18.6,15.4,30.39,NW,313,0.0,0.0,87,0.00,CLR,,0.00,WeatherDisplay:10.37,2013-02-22 11:45:00,
2013-02-22 06:50:00,19.1,15.8,30.39,NW,313,0.0,0.0,87,0.00,CLR,,0.00,WeatherDisplay:10.37,2013-02-22 11:50:00,
2013-02-22 07:00:00,19.4,16.2,30.40,NW,313,0.0,0.0,87,0.00,CLR,,0.00,WeatherDisplay:10.37,2013-02-22 12:00:00,
2013-02-22 07:05:00,19.1,15.9,30.40,NW,313,0.0,0.0,87,0.00,CLR,,0.00,WeatherDisplay:10.37,2013-02-22 12:05:00,
2013-02-22 07:10:00,20.2,17.0,30.40,NW,313,0.0,0.0,87,0.00,CLR,,0.00,WeatherDisplay:10.37,2013-02-22 12:10:00,
2013-02-22 07:15:00,20.3,17.1,30.40,NW,313,0.0,0.0,87,0.00,CLR,,0.00,WeatherDisplay:10.37,2013-02-22 12:15:00,
2013-02-22 07:20:00,19.0,15.8,30.40,NW,313,0.0,0.0,87,0.00,CLR,,0.00,WeatherDisplay:10.37,2013-02-22 12:20:00,
2013-02-22 07:25:00,19.5,16.3,30.41,NW,313,0.0,0.0,87,0.00,CLR,,0.00,WeatherDisplay:10.37,2013-02-22 12:25:00,
2013-02-22 07:30:00,20.4,17.2,30.41,NW,313,0.0,0.0,87,0.00,CLR,,0.00,WeatherDisplay:10.37,2013-02-22 12:30:00,
2013-02-22 07:35:00,21.2,17.9,30.41,NW,313,0.0,0.0,87,0.00,CLR,,0.00,WeatherDisplay:10.37,2013-02-22 12:35:00,
2013-02-22 07:40:00,20.5,17.2,30.41,NW,313,0.0,0.0,87,0.00,CLR,,0.00,WeatherDisplay:10.37,2013-02-22 12:40:00,
2013-02-22 07:45:00,19.7,16.5,30.41,NW,313,0.0,0.0,87,0.00,CLR,,0.00,WeatherDisplay:10.37,2013-02-22 12:45:00,
2013-02-22 07:50:00,21.3,18.1,30.41,NW,313,0.0,0.0,87,0.00,CLR,,0.00,WeatherDisplay:10.37,2013-02-22 12:50:00,
2013-02-22 07:55:00,21.4,18.1,30.41,NW,313,0.0,0.0,87,0.00,CLR,,0.00,WeatherDisplay:10.37,2013-02-22 12:55:00,
2013-02-22 08:00:00,21.1,17.9,30.41,NW,313,0.0,0.0,87,0.00,CLR,,0.00,WeatherDisplay:10.37,2013-02-22 13:00:00,
2013-02-22 08:05:00,21.3,18.1,30.41,NW,313,0.0,0.0,87,0.00,CLR,,0.00,WeatherDisplay:10.37,2013-02-22 13:05:00,
2013-02-22 08:10:00,21.6,18.3,30.41,NW,313,0.0,0.0,87,0.00,CLR,,0.00,WeatherDisplay:10.37,2013-02-22 13:10:00,
2013-02-22 08:15:00,21.9,18.6,30.41,NW,313,0.0,0.0,87,0.00,CLR,,0.00,WeatherDisplay:10.37,2013-02-22 13:15:00,
2013-02-22 08:20:00,22.3,19.1,30.41,NW,313,0.0,0.0,87,0.00,CLR,,0.00,WeatherDisplay:10.37,2013-02-22 13:20:00,
2013-02-22 08:25:00,22.8,19.5,30.40,NW,313,0.0,0.0,87,0.00,CLR,,0.00,WeatherDisplay:10.37,2013-02-22 13:25:00,
2013-02-22 08:30:00,24.0,20.7,30.40,NW,313,0.0,0.0,87,0.00,CLR,,0.00,WeatherDisplay:10.37,2013-02-22 13:30:00,
2013-02-22 08:35:00,23.6,20.3,30.40,NW,311,0.0,3.0,87,0.00,CLR,,0.00,WeatherDisplay:10.37,2013-02-22 13:35:00,
2013-02-22 08:45:00,25.3,22.0,30.41,NW,308,0.0,0.0,87,0.00,CLR,,0.00,WeatherDisplay:10.37,2013-02-22 13:45:00,
2013-02-22 08:50:00,26.1,22.8,30.40,NW,308,0.0,0.0,87,0.00,CLR,,0.00,WeatherDisplay:10.37,2013-02-22 13:50:00,
2013-02-22 08:55:00,26.6,23.2,30.41,NW,308,0.0,0.0,87,0.00,CLR,,0.00,WeatherDisplay:10.37,2013-02-22 13:55:00,
2013-02-22 09:00:00,27.0,23.6,30.41,NW,308,0.0,0.0,87,0.00,CLR,,0.00,WeatherDisplay:10.37,2013-02-22 14:00:00,
2013-02-22 09:05:00,27.2,18.7,30.41,NW,308,0.0,0.0,70,0.00,CLR,,0.00,WeatherDisplay:10.37,2013-02-22 14:05:00,
2013-02-22 09:10:00,27.8,19.2,30.41,NW,308,0.0,0.0,70,0.00,CLR,,0.00,WeatherDisplay:10.37,2013-02-22 14:10:00,
2013-02-22 09:15:00,28.2,19.6,30.41,NW,308,0.0,0.0,70,0.00,CLR,,0.00,WeatherDisplay:10.37,2013-02-22 14:15:00,
2013-02-22 09:20:00,28.6,20.1,30.41,NW,308,0.0,0.0,70,0.00,CLR,,0.00,WeatherDisplay:10.37,2013-02-22 14:20:00,
2013-02-22 09:25:00,29.4,20.8,30.41,NW,313,1.0,3.0,70,0.00,CLR,,0.00,WeatherDisplay:10.37,2013-02-22 14:25:00,
2013-02-22 09:30:00,29.7,21.1,30.41,NW,321,0.0,0.0,70,0.00,CLR,,0.00,WeatherDisplay:10.37,2013-02-22 14:30:00,
2013-02-22 09:35:00,29.9,21.3,30.41,NW,325,0.0,0.0,70,0.00,CLR,,0.00,WeatherDisplay:10.37,2013-02-22 14:35:00,
2013-02-22 09:40:00,30.2,21.6,30.40,WNW,287,0.0,8.0,70,0.00,CLR,,0.00,WeatherDisplay:10.37,2013-02-22 14:40:00,
2013-02-22 09:45:00,30.5,21.9,30.40,West,259,0.0,0.0,70,0.00,CLR,,0.00,WeatherDisplay:10.37,2013-02-22 14:45:00,
2013-02-22 09:50:00,31.2,22.5,30.40,WSW,258,0.0,0.0,70,0.00,CLR,,0.00,WeatherDisplay:10.37,2013-02-22 14:50:00,
2013-02-22 09:55:00,31.5,22.8,30.40,WSW,258,0.0,0.0,70,0.00,CLR,,0.00,WeatherDisplay:10.37,2013-02-22 14:55:00,
2013-02-22 10:00:00,32.2,23.5,30.40,WSW,258,0.0,0.0,70,0.00,CLR,,0.00,WeatherDisplay:10.37,2013-02-22 15:00:00,
2013-02-22 10:05:00,32.6,21.4,30.40,SW,215,0.0,10.0,63,0.00,CLR,,0.00,WeatherDisplay:10.37,2013-02-22 15:05:00,
2013-02-22 10:10:00,33.0,21.7,30.40,SE,131,0.0,0.0,63,0.00,CLR,,0.00,WeatherDisplay:10.37,2013-02-22 15:10:00,
2013-02-22 10:15:00,33.1,21.8,30.40,ESE,120,0.0,0.0,63,0.00,CLR,,0.00,WeatherDisplay:10.37,2013-02-22 15:15:00,
2013-02-22 10:20:00,33.5,22.2,30.40,ESE,118,0.0,7.0,63,0.00,CLR,,0.00,WeatherDisplay:10.37,2013-02-22 15:20:00,
2013-02-22 10:25:00,33.7,22.4,30.40,ESE,109,2.0,8.0,63,0.00,CLR,,0.00,WeatherDisplay:10.37,2013-02-22 15:25:00,
2013-02-22 10:30:00,33.7,22.4,30.40,ESE,106,0.0,0.0,63,0.00,CLR,,0.00,WeatherDisplay:10.37,2013-02-22 15:30:00,
2013-02-22 10:35:00,33.6,22.3,30.40,ESE,109,0.0,5.0,63,0.00,CLR,,0.00,WeatherDisplay:10.37,2013-02-22 15:35:00,
2013-02-22 10:40:00,34.2,22.9,30.39,ESE,113,0.0,0.0,63,0.00,CLR,,0.00,WeatherDisplay:10.37,2013-02-22 15:40:00,
2013-02-22 10:45:00,34.9,23.6,30.39,ESE,113,0.0,0.0,63,0.00,CLR,,0.00,WeatherDisplay:10.37,2013-02-22 15:45:00,
2013-02-22 10:55:00,33.8,22.5,30.39,East,88,1.0,6.0,63,0.00,CLR,,0.00,WeatherDisplay:10.37,2013-02-22 15:55:00,
2013-02-22 11:00:00,34.3,23.0,30.38,ESE,103,0.0,0.0,63,0.00,CLR,,0.00,WeatherDisplay:10.37,2013-02-22 16:00:00,
2013-02-22 11:05:00,34.8,18.5,30.38,East,88,0.0,8.0,51,0.00,CLR,,0.00,WeatherDisplay:10.37,2013-02-22 16:05:00,
2013-02-22 11:10:00,35.8,19.4,30.38,ENE,76,0.0,0.0,51,0.00,CLR,,0.00,WeatherDisplay:10.37,2013-02-22 16:10:00,
2013-02-22 11:15:00,35.5,19.2,30.38,ENE,75,0.0,0.0,51,0.00,CLR,,0.00,WeatherDisplay:10.37,2013-02-22 16:15:00,
2013-02-22 11:20:00,35.7,19.3,30.38,ENE,75,0.0,0.0,51,0.00,CLR,,0.00,WeatherDisplay:10.37,2013-02-22 16:20:00,
2013-02-22 11:25:00,36.0,19.6,30.38,ENE,75,0.0,0.0,51,0.00,CLR,,0.00,WeatherDisplay:10.37,2013-02-22 16:25:00,
2013-02-22 11:30:00,36.2,19.8,30.38,ENE,75,0.0,0.0,51,0.00,CLR,,0.00,WeatherDisplay:10.37,2013-02-22 16:30:00,
2013-02-22 11:35:00,36.6,20.2,30.37,ENE,75,0.0,10.0,51,0.00,CLR,,0.00,WeatherDisplay:10.37,2013-02-22 16:35:00,
2013-02-22 11:40:00,36.5,20.1,30.37,ENE,68,3.0,9.0,51,0.00,CLR,,0.00,WeatherDisplay:10.37,2013-02-22 16:40:00,
2013-02-22 11:50:00,36.7,20.3,30.36,NE,55,0.0,0.0,51,0.00,CLR,,0.00,WeatherDisplay:10.37,2013-02-22 16:50:00,
2013-02-22 11:55:00,36.6,20.1,30.37,NE,55,0.0,0.0,51,0.00,CLR,,0.00,WeatherDisplay:10.37,2013-02-22 16:55:00,
2013-02-22 12:00:00,36.1,19.7,30.36,NE,55,0.0,0.0,51,0.00,CLR,,0.00,WeatherDisplay:10.37,2013-02-22 17:00:00,
2013-02-22 12:05:00,35.9,15.5,30.36,NE,55,0.0,0.0,43,0.00,CLR,,0.00,WeatherDisplay:10.37,2013-02-22 17:05:00,
2013-02-22 12:10:00,35.5,15.2,30.36,ENE,65,1.0,6.0,43,0.00,CLR,,0.00,WeatherDisplay:10.37,2013-02-22 17:10:00,
2013-02-22 12:15:00,37.7,17.1,30.36,ENE,78,0.0,0.0,43,0.00,CLR,,0.00,WeatherDisplay:10.37,2013-02-22 17:15:00,
2013-02-22 12:20:00,37.1,16.6,30.36,East,82,0.0,0.0,43,0.00,CLR,,0.00,WeatherDisplay:10.37,2013-02-22 17:20:00,
2013-02-22 12:25:00,38.4,17.8,30.36,East,85,0.0,9.0,43,0.00,CLR,,0.00,WeatherDisplay:10.37,2013-02-22 17:25:00,
2013-02-22 12:30:00,36.7,16.3,30.36,East,87,2.0,6.0,43,0.00,CLR,,0.00,WeatherDisplay:10.37,2013-02-22 17:30:00,
2013-02-22 12:35:00,38.1,17.5,30.36,East,87,0.0,0.0,43,0.00,CLR,,0.00,WeatherDisplay:10.37,2013-02-22 17:35:00,
2013-02-22 12:40:00,37.0,16.5,30.36,East,86,0.0,0.0,43,0.00,CLR,,0.00,WeatherDisplay:10.37,2013-02-22 17:40:00,
2013-02-22 12:45:00,36.7,16.3,30.36,East,86,0.0,0.0,43,0.00,CLR,,0.00,WeatherDisplay:10.37,2013-02-22 17:45:00,
2013-02-22 12:50:00,36.0,15.6,30.36,East,86,0.0,0.0,43,0.00,CLR,,0.00,WeatherDisplay:10.37,2013-02-22 17:50:00,
2013-02-22 12:55:00,36.3,15.9,30.36,East,86,0.0,0.0,43,0.00,CLR,,0.00,WeatherDisplay:10.37,2013-02-22 17:55:00,
2013-02-22 13:00:00,36.8,16.3,30.36,East,86,0.0,0.0,43,0.00,CLR,,0.00,WeatherDisplay:10.37,2013-02-22 18:00:00,
2013-02-22 13:05:00,38.3,16.0,30.36,East,86,0.0,0.0,40,0.00,CLR,,0.00,WeatherDisplay:10.37,2013-02-22 18:05:00,
2013-02-22 13:10:00,38.3,16.1,30.36,East,86,0.0,0.0,40,0.00,CLR,,0.00,WeatherDisplay:10.37,2013-02-22 18:10:00,
2013-02-22 13:15:00,38.8,16.5,30.36,East,86,0.0,0.0,40,0.00,CLR,,0.00,WeatherDisplay:10.37,2013-02-22 18:15:00,
2013-02-22 13:20:00,37.5,15.4,30.36,East,91,0.0,6.0,40,0.00,CLR,,0.00,WeatherDisplay:10.37,2013-02-22 18:20:00,
2013-02-22 13:25:00,38.9,16.6,30.35,East,93,0.0,0.0,40,0.00,CLR,,0.00,WeatherDisplay:10.37,2013-02-22 18:25:00,
2013-02-22 13:30:00,39.9,17.5,30.35,East,93,0.0,0.0,40,0.00,CLR,,0.00,WeatherDisplay:10.37,2013-02-22 18:30:00,
2013-02-22 13:35:00,39.4,17.1,30.35,East,93,0.0,0.0,40,0.00,CLR,,0.00,WeatherDisplay:10.37,2013-02-22 18:35:00,
2013-02-22 13:40:00,40.9,18.4,30.35,East,93,0.0,0.0,40,0.00,CLR,,0.00,WeatherDisplay:10.37,2013-02-22 18:40:00,
2013-02-22 13:45:00,41.0,18.5,30.35,East,93,0.0,0.0,40,0.00,CLR,,0.00,WeatherDisplay:10.37,2013-02-22 18:45:00,
2013-02-22 13:50:00,38.4,16.1,30.34,East,93,0.0,0.0,40,0.00,CLR,,0.00,WeatherDisplay:10.37,2013-02-22 18:50:00,
2013-02-22 13:55:00,38.2,16.0,30.34,East,93,0.0,0.0,40,0.00,CLR,,0.00,WeatherDisplay:10.37,2013-02-22 18:55:00,
2013-02-22 14:00:00,38.5,16.3,30.34,East,93,0.0,0.0,40,0.00,CLR,,0.00,WeatherDisplay:10.37,2013-02-22 19:00:00,
2013-02-22 14:05:00,39.3,17.0,30.34,East,93,0.0,0.0,40,0.00,CLR,,0.00,WeatherDisplay:10.37,2013-02-22 19:05:00,
2013-02-22 14:10:00,39.0,16.7,30.34,East,93,0.0,0.0,40,0.00,CLR,,0.00,WeatherDisplay:10.37,2013-02-22 19:10:00,
2013-02-22 14:15:00,39.1,16.7,30.34,East,93,0.0,0.0,40,0.00,CLR,,0.00,WeatherDisplay:10.37,2013-02-22 19:15:00,
2013-02-22 14:20:00,39.0,16.7,30.34,East,93,0.0,0.0,40,0.00,CLR,,0.00,WeatherDisplay:10.37,2013-02-22 19:20:00,
2013-02-22 14:25:00,38.9,16.6,30.34,East,93,0.0,0.0,40,0.00,CLR,,0.00,WeatherDisplay:10.37,2013-02-22 19:25:00,
2013-02-22 14:30:00,38.8,16.5,30.34,East,93,0.0,0.0,40,0.00,CLR,,0.00,WeatherDisplay:10.37,2013-02-22 19:30:00,
2013-02-22 14:35:00,38.8,16.5,30.34,East,93,0.0,0.0,40,0.00,CLR,,0.00,WeatherDisplay:10.37,2013-02-22 19:35:00,
2013-02-22 14:40:00,39.0,16.7,30.34,East,93,0.0,0.0,40,0.00,CLR,,0.00,WeatherDisplay:10.37,2013-02-22 19:40:00,
2013-02-22 14:45:00,39.3,17.0,30.34,East,93,0.0,0.0,40,0.00,CLR,,0.00,WeatherDisplay:10.37,2013-02-22 19:45:00,
2013-02-22 14:50:00,39.8,17.4,30.34,East,93,0.0,0.0,40,0.00,CLR,,0.00,WeatherDisplay:10.37,2013-02-22 19:50:00,
2013-02-22 14:55:00,39.1,16.8,30.34,East,93,0.0,0.0,40,0.00,CLR,,0.00,WeatherDisplay:10.37,2013-02-22 19:55:00,
2013-02-22 15:00:00,38.5,16.2,30.34,East,93,0.0,0.0,40,0.00,CLR,,0.00,WeatherDisplay:10.37,2013-02-22 20:00:00,
2013-02-22 15:05:00,39.3,16.9,30.34,East,93,0.0,0.0,40,0.00,CLR,,0.00,WeatherDisplay:10.37,2013-02-22 20:05:00,
2013-02-22 15:10:00,39.4,17.0,30.34,East,93,0.0,0.0,40,0.00,CLR,,0.00,WeatherDisplay:10.37,2013-02-22 20:10:00,
2013-02-22 15:15:00,38.6,16.3,30.34,East,93,0.0,0.0,40,0.00,CLR,,0.00,WeatherDisplay:10.37,2013-02-22 20:15:00,
2013-02-22 15:20:00,38.1,15.9,30.34,East,93,0.0,0.0,40,0.00,CLR,,0.00,WeatherDisplay:10.37,2013-02-22 20:20:00,
2013-02-22 15:25:00,37.9,15.7,30.35,East,93,0.0,0.0,40,0.00,CLR,,0.00,WeatherDisplay:10.37,2013-02-22 20:25:00,
2013-02-22 15:30:00,37.3,15.1,30.34,East,93,0.0,0.0,40,0.00,CLR,,0.00,WeatherDisplay:10.37,2013-02-22 20:30:00,
2013-02-22 15:35:00,37.1,14.9,30.34,East,93,0.0,0.0,40,0.00,CLR,,0.00,WeatherDisplay:10.37,2013-02-22 20:35:00,
2013-02-22 15:40:00,36.5,14.4,30.33,East,93,0.0,0.0,40,0.00,CLR,,0.00,WeatherDisplay:10.37,2013-02-22 20:40:00,
2013-02-22 15:50:00,37.0,14.9,30.33,East,93,0.0,0.0,40,0.00,CLR,,0.00,WeatherDisplay:10.37,2013-02-22 20:50:00,
2013-02-22 15:55:00,36.0,14.0,30.32,East,93,0.0,0.0,40,0.00,CLR,,0.00,WeatherDisplay:10.37,2013-02-22 20:55:00,
2013-02-22 16:00:00,36.9,14.8,30.33,East,93,0.0,0.0,40,0.00,CLR,,0.00,WeatherDisplay:10.37,2013-02-22 21:00:00,
2013-02-22 16:05:00,36.5,17.2,30.33,East,93,0.0,0.0,45,0.00,CLR,,0.00,WeatherDisplay:10.37,2013-02-22 21:05:00,
2013-02-22 16:10:00,36.9,17.5,30.33,East,93,0.0,0.0,45,0.00,CLR,,0.00,WeatherDisplay:10.37,2013-02-22 21:10:00,
2013-02-22 16:20:00,37.0,17.6,30.32,East,93,0.0,0.0,45,0.00,CLR,,0.00,WeatherDisplay:10.37,2013-02-22 21:20:00,
2013-02-22 16:25:00,36.9,17.5,30.32,East,93,0.0,0.0,45,0.00,CLR,,0.00,WeatherDisplay:10.37,2013-02-22 21:25:00,
2013-02-22 16:30:00,35.9,16.6,30.32,East,93,0.0,0.0,45,0.00,CLR,,0.00,WeatherDisplay:10.37,2013-02-22 21:30:00,
2013-02-22 16:35:00,36.1,16.8,30.32,East,93,0.0,0.0,45,0.00,CLR,,0.00,WeatherDisplay:10.37,2013-02-22 21:35:00,
2013-02-22 16:40:00,35.6,16.3,30.32,East,93,0.0,0.0,45,0.00,CLR,,0.00,WeatherDisplay:10.37,2013-02-22 21:40:00,
2013-02-22 16:45:00,35.8,16.5,30.32,East,93,0.0,0.0,45,0.00,CLR,,0.00,WeatherDisplay:10.37,2013-02-22 21:45:00,
2013-02-22 16:50:00,35.7,16.4,30.33,East,93,0.0,0.0,45,0.00,CLR,,0.00,WeatherDisplay:10.37,2013-02-22 21:50:00,
2013-02-22 16:55:00,35.0,15.8,30.33,East,93,0.0,0.0,45,0.00,CLR,,0.00,WeatherDisplay:10.37,2013-02-22 21:55:00,
2013-02-22 17:00:00,34.6,15.4,30.33,East,93,0.0,0.0,45,0.00,CLR,,0.00,WeatherDisplay:10.37,2013-02-22 22:00:00,
2013-02-22 17:05:00,34.0,15.9,30.32,East,93,0.0,0.0,47,0.00,CLR,,0.00,WeatherDisplay:10.37,2013-02-22 22:05:00,
2013-02-22 17:10:00,34.1,16.0,30.32,East,93,0.0,0.0,47,0.00,CLR,,0.00,WeatherDisplay:10.37,2013-02-22 22:10:00,
2013-02-22 17:15:00,33.2,15.1,30.32,East,93,0.0,0.0,47,0.00,CLR,,0.00,WeatherDisplay:10.37,2013-02-22 22:15:00,
2013-02-22 17:20:00,33.2,15.1,30.32,East,93,0.0,0.0,47,0.00,CLR,,0.00,WeatherDisplay:10.37,2013-02-22 22:20:00,
2013-02-22 17:25:00,33.5,15.4,30.32,East,93,0.0,0.0,47,0.00,CLR,,0.00,WeatherDisplay:10.37,2013-02-22 22:25:00,
2013-02-22 17:30:00,32.6,14.6,30.32,East,93,0.0,0.0,47,0.00,CLR,,0.00,WeatherDisplay:10.37,2013-02-22 22:30:00,
2013-02-22 17:35:00,32.1,14.1,30.32,East,93,0.0,0.0,47,0.00,CLR,,0.00,WeatherDisplay:10.37,2013-02-22 22:35:00,
2013-02-22 17:40:00,31.7,13.8,30.32,East,93,0.0,0.0,47,0.00,CLR,,0.00,WeatherDisplay:10.37,2013-02-22 22:40:00,
2013-02-22 17:45:00,31.3,13.4,30.32,East,93,0.0,0.0,47,0.00,CLR,,0.00,WeatherDisplay:10.37,2013-02-22 22:45:00,
2013-02-22 17:50:00,31.2,13.3,30.32,East,93,0.0,0.0,47,0.00,CLR,,0.00,WeatherDisplay:10.37,2013-02-22 22:50:00,
2013-02-22 17:55:00,30.7,12.9,30.32,East,93,0.0,0.0,47,0.00,CLR,,0.00,WeatherDisplay:10.37,2013-02-22 22:55:00,
2013-02-22 18:00:00,30.5,12.6,30.33,East,93,0.0,0.0,47,0.00,CLR,,0.00,WeatherDisplay:10.37,2013-02-22 23:00:00,
2013-02-22 18:05:00,30.2,14.3,30.33,East,93,0.0,0.0,51,0.00,CLR,,0.00,WeatherDisplay:10.37,2013-02-22 23:05:00,
2013-02-22 18:10:00,30.0,14.1,30.33,East,93,0.0,0.0,51,0.00,CLR,,0.00,WeatherDisplay:10.37,2013-02-22 23:10:00,
2013-02-22 18:15:00,29.7,13.8,30.32,East,93,0.0,0.0,51,0.00,CLR,,0.00,WeatherDisplay:10.37,2013-02-22 23:15:00,
2013-02-22 18:20:00,30.2,14.2,30.32,East,93,0.0,0.0,51,0.00,CLR,,0.00,WeatherDisplay:10.37,2013-02-22 23:20:00,
2013-02-22 18:25:00,30.2,14.2,30.32,East,93,0.0,0.0,51,0.00,CLR,,0.00,WeatherDisplay:10.37,2013-02-22 23:25:00,
2013-02-22 18:30:00,30.4,14.4,30.33,East,93,0.0,0.0,51,0.00,CLR,,0.00,WeatherDisplay:10.37,2013-02-22 23:30:00,
2013-02-22 18:35:00,30.2,14.3,30.33,East,93,0.0,0.0,51,0.00,CLR,,0.00,WeatherDisplay:10.37,2013-02-22 23:35:00,
2013-02-22 18:40:00,29.5,13.6,30.33,East,93,0.0,0.0,51,0.00,CLR,,0.00,WeatherDisplay:10.37,2013-02-22 23:40:00,
2013-02-22 18:45:00,29.1,13.2,30.33,East,93,0.0,0.0,51,0.00,CLR,,0.00,WeatherDisplay:10.37,2013-02-22 23:45:00,
2013-02-22 18:50:00,29.1,13.2,30.33,East,93,0.0,0.0,51,0.00,CLR,,0.00,WeatherDisplay:10.37,2013-02-22 23:50:00,
2013-02-22 18:55:00,30.0,14.1,30.33,East,93,0.0,0.0,51,0.00,CLR,,0.00,WeatherDisplay:10.37,2013-02-22 23:55:00,
2013-02-22 19:00:00,29.5,13.6,30.33,East,93,0.0,0.0,51,0.00,CLR,,0.00,WeatherDisplay:10.37,2013-02-23 00:00:00,
2013-02-22 19:05:00,29.3,15.1,30.33,East,93,0.0,0.0,55,0.00,CLR,,0.00,WeatherDisplay:10.37,2013-02-23 00:05:00,
2013-02-22 19:10:00,29.3,15.1,30.33,East,93,0.0,0.0,55,0.00,CLR,,0.00,WeatherDisplay:10.37,2013-02-23 00:10:00,
2013-02-22 19:15:00,29.3,15.1,30.33,East,93,0.0,0.0,55,0.00,CLR,,0.00,WeatherDisplay:10.37,2013-02-23 00:15:00,
2013-02-22 19:20:00,29.1,15.0,30.32,East,93,0.0,0.0,55,0.00,CLR,,0.00,WeatherDisplay:10.37,2013-02-23 00:20:00,
2013-02-22 19:25:00,29.3,15.1,30.32,East,93,0.0,0.0,55,0.00,CLR,,0.00,WeatherDisplay:10.37,2013-02-23 00:25:00,
2013-02-22 19:30:00,30.3,16.0,30.32,East,93,0.0,0.0,55,0.00,CLR,,0.00,WeatherDisplay:10.37,2013-02-23 00:30:00,
2013-02-22 19:35:00,30.2,16.0,30.32,East,93,0.0,0.0,55,0.00,CLR,,0.00,WeatherDisplay:10.37,2013-02-23 00:35:00,
2013-02-22 19:40:00,30.4,16.2,30.33,East,93,0.0,0.0,55,0.00,CLR,,0.00,WeatherDisplay:10.37,2013-02-23 00:40:00,
2013-02-22 19:45:00,30.6,16.4,30.33,East,93,0.0,0.0,55,0.00,CLR,,0.00,WeatherDisplay:10.37,2013-02-23 00:45:00,
2013-02-22 19:50:00,30.2,15.9,30.33,East,93,0.0,0.0,55,0.00,CLR,,0.00,WeatherDisplay:10.37,2013-02-23 00:50:00,
2013-02-22 19:55:00,29.8,15.6,30.34,East,93,0.0,0.0,55,0.00,CLR,,0.00,WeatherDisplay:10.37,2013-02-23 00:55:00,
2013-02-22 20:00:00,29.5,15.3,30.33,East,93,0.0,0.0,55,0.00,CLR,,0.00,WeatherDisplay:10.37,2013-02-23 01:00:00,
2013-02-22 20:05:00,29.2,17.0,30.33,East,93,0.0,0.0,60,0.00,CLR,,0.00,WeatherDisplay:10.37,2013-02-23 01:05:00,
2013-02-22 20:10:00,29.4,17.2,30.33,East,93,0.0,0.0,60,0.00,CLR,,0.00,WeatherDisplay:10.37,2013-02-23 01:10:00,
2013-02-22 20:15:00,29.1,16.9,30.33,East,93,0.0,0.0,60,0.00,CLR,,0.00,WeatherDisplay:10.37,2013-02-23 01:15:00,
2013-02-22 20:20:00,29.4,17.3,30.33,East,93,0.0,0.0,60,0.00,CLR,,0.00,WeatherDisplay:10.37,2013-02-23 01:20:00,
2013-02-22 20:25:00,29.7,17.5,30.33,East,93,0.0,0.0,60,0.00,CLR,,0.00,WeatherDisplay:10.37,2013-02-23 01:25:00,
2013-02-22 20:30:00,30.5,18.2,30.33,East,93,0.0,0.0,60,0.00,CLR,,0.00,WeatherDisplay:10.37,2013-02-23 01:30:00,
2013-02-22 20:35:00,30.5,18.3,30.34,East,93,0.0,0.0,60,0.00,CLR,,0.00,WeatherDisplay:10.37,2013-02-23 01:35:00,
2013-02-22 20:40:00,30.5,18.3,30.33,East,93,0.0,0.0,60,0.00,CLR,,0.00,WeatherDisplay:10.37,2013-02-23 01:40:00,
2013-02-22 20:45:00,29.9,17.7,30.33,East,93,0.0,0.0,60,0.00,CLR,,0.00,WeatherDisplay:10.37,2013-02-23 01:45:00,
2013-02-22 20:50:00,30.2,18.0,30.34,East,93,0.0,0.0,60,0.00,CLR,,0.00,WeatherDisplay:10.37,2013-02-23 01:50:00,
2013-02-22 20:55:00,30.2,18.0,30.34,East,93,0.0,0.0,60,0.00,CLR,,0.00,WeatherDisplay:10.37,2013-02-23 01:55:00,
2013-02-22 21:00:00,30.1,17.8,30.34,East,93,0.0,0.0,60,0.00,CLR,,0.00,WeatherDisplay:10.37,2013-02-23 02:00:00,
2013-02-22 21:05:00,30.2,19.1,30.34,East,93,0.0,0.0,63,0.00,CLR,,0.00,WeatherDisplay:10.37,2013-02-23 02:05:00,
2013-02-22 21:10:00,30.5,19.4,30.33,East,93,0.0,0.0,63,0.00,CLR,,0.00,WeatherDisplay:10.37,2013-02-23 02:10:00,
2013-02-22 21:20:00,30.6,19.5,30.33,East,93,0.0,0.0,63,0.00,CLR,,0.00,WeatherDisplay:10.37,2013-02-23 02:20:00,
2013-02-22 21:25:00,30.4,19.3,30.33,East,93,0.0,0.0,63,0.00,CLR,,0.00,WeatherDisplay:10.37,2013-02-23 02:25:00,
2013-02-22 21:30:00,30.2,19.1,30.33,East,93,0.0,0.0,63,0.00,CLR,,0.00,WeatherDisplay:10.37,2013-02-23 02:30:00,
2013-02-22 21:35:00,30.1,19.0,30.33,East,93,0.0,0.0,63,0.00,CLR,,0.00,WeatherDisplay:10.37,2013-02-23 02:35:00,
2013-02-22 21:40:00,30.6,19.5,30.33,East,93,0.0,0.0,63,0.00,CLR,,0.00,WeatherDisplay:10.37,2013-02-23 02:40:00,
2013-02-22 21:45:00,30.9,19.8,30.33,East,93,0.0,0.0,63,0.00,CLR,,0.00,WeatherDisplay:10.37,2013-02-23 02:45:00,
2013-02-22 21:50:00,30.9,19.7,30.33,East,93,0.0,0.0,63,0.00,CLR,,0.00,WeatherDisplay:10.37,2013-02-23 02:50:00,
2013-02-22 21:55:00,30.8,19.7,30.33,East,93,0.0,0.0,63,0.00,CLR,,0.00,WeatherDisplay:10.37,2013-02-23 02:55:00,
2013-02-22 22:00:00,31.3,20.1,30.33,East,93,0.0,0.0,63,0.00,CLR,,0.00,WeatherDisplay:10.37,2013-02-23 03:00:00,
2013-02-22 22:05:00,31.1,21.1,30.33,East,93,0.0,0.0,66,0.00,CLR,,0.00,WeatherDisplay:10.37,2013-02-23 03:05:00,
2013-02-22 22:10:00,30.9,20.8,30.33,East,93,0.0,0.0,66,0.00,CLR,,0.00,WeatherDisplay:10.37,2013-02-23 03:10:00,
2013-02-22 22:15:00,30.7,20.7,30.33,East,93,0.0,0.0,66,0.00,CLR,,0.00,WeatherDisplay:10.37,2013-02-23 03:15:00,
2013-02-22 22:20:00,30.9,20.9,30.33,East,93,0.0,0.0,66,0.00,CLR,,0.00,WeatherDisplay:10.37,2013-02-23 03:20:00,
2013-02-22 22:25:00,31.0,20.9,30.33,East,93,0.0,0.0,66,0.00,CLR,,0.00,WeatherDisplay:10.37,2013-02-23 03:25:00,
2013-02-22 22:30:00,30.7,20.7,30.33,East,93,0.0,0.0,66,0.00,CLR,,0.00,WeatherDisplay:10.37,2013-02-23 03:30:00,
2013-02-22 22:35:00,30.9,20.9,30.33,East,93,0.0,0.0,66,0.00,CLR,,0.00,WeatherDisplay:10.37,2013-02-23 03:35:00,
2013-02-22 22:40:00,30.6,20.6,30.33,East,93,0.0,0.0,66,0.00,CLR,,0.00,WeatherDisplay:10.37,2013-02-23 03:40:00,
2013-02-22 22:45:00,31.3,21.3,30.33,East,93,0.0,0.0,66,0.00,CLR,,0.00,WeatherDisplay:10.37,2013-02-23 03:45:00,
2013-02-22 22:50:00,30.7,20.7,30.33,East,93,0.0,0.0,66,0.00,CLR,,0.00,WeatherDisplay:10.37,2013-02-23 03:50:00,
2013-02-22 22:55:00,30.9,20.9,30.33,East,93,0.0,0.0,66,0.00,CLR,,0.00,WeatherDisplay:10.37,2013-02-23 03:55:00,
2013-02-22 23:00:00,30.7,20.7,30.33,East,93,0.0,0.0,66,0.00,CLR,,0.00,WeatherDisplay:10.37,2013-02-23 04:00:00,
2013-02-22 23:05:00,30.4,21.1,30.34,East,93,0.0,0.0,68,0.00,BKN,,0.00,WeatherDisplay:10.37,2013-02-23 04:05:00,
2013-02-22 23:10:00,30.7,21.4,30.33,East,93,0.0,0.0,68,0.00,BKN,,0.00,WeatherDisplay:10.37,2013-02-23 04:10:00,
2013-02-22 23:15:00,30.8,21.5,30.33,East,93,0.0,0.0,68,0.00,BKN,,0.00,WeatherDisplay:10.37,2013-02-23 04:15:00,
2013-02-22 23:20:00,31.1,21.7,30.33,East,93,0.0,0.0,68,0.00,BKN,,0.00,WeatherDisplay:10.37,2013-02-23 04:20:00,
2013-02-22 23:25:00,30.6,21.2,30.33,East,93,0.0,0.0,68,0.00,BKN,,0.00,WeatherDisplay:10.37,2013-02-23 04:25:00,
2013-02-22 23:30:00,30.3,21.0,30.33,East,93,0.0,0.0,68,0.00,BKN,,0.00,WeatherDisplay:10.37,2013-02-23 04:30:00,
2013-02-22 23:35:00,30.5,21.2,30.33,East,93,0.0,0.0,68,0.00,BKN,,0.00,WeatherDisplay:10.37,2013-02-23 04:35:00,
2013-02-22 23:40:00,29.6,20.4,30.33,East,93,0.0,0.0,68,0.00,BKN,,0.00,WeatherDisplay:10.37,2013-02-23 04:40:00,
2013-02-22 23:45:00,29.9,20.6,30.33,East,93,0.0,0.0,68,0.00,BKN,,0.00,WeatherDisplay:10.37,2013-02-23 04:45:00,
2013-02-22 23:50:00,29.7,20.4,30.33,East,93,0.0,0.0,68,0.00,BKN,,0.00,WeatherDisplay:10.37,2013-02-23 04:50:00,
2013-02-22 23:55:00,28.9,19.7,30.32,East,93,0.0,0.0,68,0.00,BKN,,0.00,WeatherDisplay:10.37,2013-02-23 04:55:00,